Regional Weather Roundup
Issued by NWS

Home | Current Version | Previous Version | Text Only | Print | Product List | Glossary Off
Versions: 1 2 3 4 5 6 7 8 9 10 11 12 13 14 15 16 17 18 19 20 21 22 23 24 25 26 27

000
ASUS45 KCYS 210110
RWRWY

WYOMING REGIONAL WEATHER ROUNDUP
NATIONAL WEATHER SERVICE CHEYENNE WY
700 PM MDT WED SEP 20 2017

NOTE:  "FAIR" INDICATES FEW OR NO CLOUDS BELOW 12,000 FEET
WITH NO SIGNIFICANT WEATHER AND/OR OBSTRUCTIONS TO VISIBILITY.

WYZ001-210200-
YELLOWSTONE NATIONAL PARK

CITY           SKY/WX    TMP DP  RH WIND       PRES   REMARKS
LK YELLOWSTONE   N/A     38  35  89 VRB3      29.81S
W YELLOWSTONE  NOT AVBL

$$
WYZ002>013-054>058-071-098>099-210200-
NORTHERN WYOMING

CITY           SKY/WX    TMP DP  RH WIND       PRES   REMARKS
JACKSON        MOCLDY    51  30  44 SW13      29.79F
CODY           FAIR      56  29  35 SW16G26   29.72R
GREYBULL       FAIR      67  24  19 SW16G22   29.67S
WORLAND        FAIR      64  30  27 SW9       29.71R
SHERIDAN       FAIR      62  26  25 S8        29.68S
BUFFALO        FAIR      57  23  26 S10       29.76R
GILLETTE       FAIR      60  30  32 SW5       29.75S
HULETT         FAIR      59  30  33 S8        29.77S
NEWCASTLE      FAIR      64  23  20 SW8       29.80R

$$
WYZ014>020-022>026-101>103-210200-
CENTRAL WYOMING

CITY           SKY/WX    TMP DP  RH WIND       PRES   REMARKS
BIG PINEY      FAIR      51  30  44 W7        29.86F
PINEDALE       CLOUDY    50  30  46 CALM      29.88F
DUBOIS         MOCLDY    45  28  53 W8        29.83S
LANDER           N/A    N/A N/A N/A MISG      29.76S
RIVERTON       FAIR      59  26  28 SW12      29.77F
CASPER         FAIR      58  31  35 W3        29.79F
DOUGLAS        FAIR      65  34  31 CALM      29.80F

$$
WYZ021-027>030-104>119-210200-
SOUTHERN WYOMING

CITY           SKY/WX    TMP DP  RH WIND       PRES   REMARKS
EVANSTON       FAIR      59  32  36 SW17G25   29.81F
KEMMERER         N/A     54  30  40 W7        29.84F
FORT BRIDGER   FAIR      64  31  29 SW17G25   29.85F
ROCK SPRINGS   MOCLDY    57  32  38 SW3       29.85F
DIXON          FAIR      66  33  28 SW5       29.89S
RAWLINS        FAIR      60  33  36 SW14      29.87S
SARATOGA       FAIR      61  34  36 W8        29.91R
LARAMIE        FAIR      59  30  33 S16       29.92R
CHEYENNE       FAIR      64  27  24 SE10      29.88F
TORRINGTON     FAIR      68  35  29 SE10      29.78S
PINE BLUFFS    FAIR      66  27  22 SE10      29.86F

$$




USA.gov is the U.S. government's official web portal to all federal, state and local government web resources and services.